[Iaude] MPEC S182: 2023 OE24 [a=1.72,e=0.27,i=8.0,H=20.97]
    mpec at marsden.cfa.harvard.edu 
    mpec at marsden.cfa.harvard.edu
       
    Sun Sep 24 10:12:28 EDT 2023
    
    
  
M.P.E.C. 2023-S182                           Issued 2023 September 24, 14:11 UT
     The Minor Planet Electronic Circulars contain information on unusual
         minor planets, routine data on comets and natural satellites,
         and occasional editorial announcements.  They are published
    on behalf of Division F of the International Astronomical Union by the
          Minor Planet Center, Smithsonian Astrophysical Observatory,
                          Cambridge, MA 02138, U.S.A.
			  
             Prepared using the Tamkin Foundation Computer Network
                              MPC at CFA.HARVARD.EDU
            URL https://www.minorplanetcenter.net/    ISSN 1523-6714
                                   2023 OE24                                    
                           Revision to MPEC 2023-R110                           
Additional Observations:
     K23O24E .C2005 12 02.12615 00 04 13.84 -02 17 23.9          22.8 RoES182695
     K23O24E .C2005 12 02.17477 00 04 16.78 -02 16 42.7                oES182695
     K23O24E  C2014 08 25.50487 01 00 05.523-18 05 36.10         20.9 wLES182F51
     K23O24E  C2014 08 25.52605 01 00 04.413-18 05 36.20         20.8 wLES182F51
     K23O24E  C2014 08 25.53664 01 00 03.858-18 05 36.14         20.8 wLES182F51
     K23O24E  C2014 08 26.52000 00 59 18.542-18 05 31.89         21.0 wLES182F51
     K23O24E  C2014 08 26.53136 00 59 17.899-18 05 31.96         21.0 wLES182F51
     K23O24E  C2014 08 26.54268 00 59 17.270-18 05 31.80         20.9 wLES182F51
     K23O24E  C2014 08 26.55403 00 59 16.628-18 05 31.77         21.1 wLES182F51
Observer details:
695 Kitt Peak.  Observers L. H. Wasserman, R. L. Millis.  Measurers L. H.
    Wasserman, R. L. M. M. W. Buie.  4-m f/2.8 reflector + 8K CCD + prime-
    focus corrector.
F51 Pan-STARRS 1, Haleakala.  Observers N. Primak, A. Schultz, T. Goggia, M.
    Willman.  Measurers B. Bolin, K. Chambers, S. Chastel, L. Denneau, H.
    Flewelling, M. Huber, E. Magnier, E. Schunova, R. Wainscoat, C. Waters.
    1.8-m Ritchey-Chretien + CCD.
Orbital elements:
2023 OE24                                                Earth MOID = 0.2697 AU
Epoch 2023 Sept. 13.0 TT = JDT 2460200.5                Veres                   
M  41.93870              (2000.0)            P               Q                  
n   0.43831382     Peri.  241.52958     +0.26340920     +0.95981157             
a   1.7163767      Node    44.09668     -0.82927557     +0.27657788             
e   0.2701094      Incl.    7.99918     -0.49286673     +0.04760704             
P   2.25           H   20.97          G   0.15           U   1                  
Residuals in seconds of arc
051202 695  0.2+  0.1+    230730 F51  0.0   0.0     230909 F51  0.2+  0.2+
051202 695  0.1-  0.0     230730 F51  0.2+  0.1+    230910 F52  0.1+  0.1-
140825 F51  0.0   0.1-    230820 F51  0.0   0.1-    230910 F52  0.2+  0.2-
140825 F51  0.0   0.1-    230826 F52  0.1-  0.1+    230910 F52  0.1-  0.0
140825 F51  0.0   0.0     230826 F52  0.1-  0.0     230910 F52  0.1-  0.1+
140826 F51  0.0   0.1+    230826 F52  0.0   0.1+    230910 F51  0.0   0.1-
140826 F51  0.1-  0.0     230826 F52  0.1-  0.0     230910 F51  0.1+  0.1-
140826 F51  0.0   0.1+    230827 F51  0.0   0.0     230915 F51  0.0   0.1+
140826 F51  0.0   0.0     230827 F51  0.2-  0.1+    230915 F51  0.1-  0.1-
230730 F51  0.0   0.1-    230905 F51  0.1-  0.1-    230915 F51  0.0   0.1+
230730 F51  0.1-  0.0     230909 F51  0.0   0.0     230915 F51  0.2+  0.0
Ephemeris:
2023 OE24                a,e,i = 1.72, 0.27, 8                   q = 1.2528
Date    TT    R. A. (2000) Decl.     Delta      r    Elong.  Phase     V
2023 08 25    01 10 18.9 -15 53 02   0.4636  1.3854   136.7    30.0    21.3
...
2023 09 09    00 55 20.3 -15 43 23   0.4649  1.4339   151.7    19.5    21.1
...
2023 09 17    00 43 24.8 -15 20 37   0.4773  1.4613   159.1    14.2    21.0
...
2023 09 23    00 33 50.1 -14 51 00   0.4934  1.4823   162.9    11.5    21.0
2023 09 24    00 32 14.7 -14 44 57   0.4966  1.4859   163.3    11.2    21.0
2023 09 25    00 30 39.9 -14 38 34   0.5001  1.4894   163.5    11.0    21.0
...
2023 10 01    00 21 34.2 -13 53 50   0.5244  1.5110   163.2    11.1    21.2
...
2023 10 09    00 11 06.5 -12 39 00   0.5666  1.5401   158.3    13.8    21.5
...
2023 10 24    23 59 03.4 -09 45 46   0.6752  1.5952   144.9    21.0    22.2
A. U. Tomatic                (C) Copyright 2023 MPC           M.P.E.C. 2023-S182
    
    
More information about the Iaude
mailing list